AU224 Weather Reports


time (UTC)temp
C
wind
direction
speed
KPH
gust
KPH
rain 1hr
cm
rain 24hr
cm
rain mn
cm
humidity
%
barometer
mb
20260901200057 16 0 0.0 0.0 0.00 0.00 0.00 70 1019.4
20260901194546 16 0 0.0 0.0 0.00 0.00 0.00 69 1019.3
20260901193103 16 0 0.0 0.0 0.00 0.00 0.00 68 1019.1
20260901191608 16 0 0.0 0.0 0.00 0.00 0.00 67 1019.2
20260901190120 17 0 0.0 0.0 0.00 0.00 0.00 66 1019.1
20260901184552 17 0 0.0 0.0 0.00 0.00 0.00 64 1018.9
20260901183050 18 0 0.0 0.0 0.00 0.00 0.00 62 1018.7
20260901181546 18 0 0.0 0.0 0.00 0.00 0.00 60 1018.6
20260901180054 19 0 0.0 0.0 0.00 0.00 0.00 59 1018.6
20260901174555 20 0 0.0 0.0 0.00 0.00 0.00 57 1018.5
20260901173047 20 0 0.0 0.0 0.00 0.00 0.00 56 1018.4
20260901171627 20 0 0.0 0.0 0.00 0.00 0.00 57 1018.3
20260901170105 20 0 0.0 1.6 0.00 0.00 0.00 54 1018.4
20260901164609 20 0 0.0 6.4 0.00 0.00 0.00 54 1018.4
20260901163109 21 0 0.0 6.4 0.00 0.00 0.00 51 1018.5
20260901161603 22 352 0.0 6.4 0.00 0.00 0.00 51 1018.5
20260901160053 21 0 0.0 4.8 0.00 0.00 0.00 53 1018.3
20260901154557 22 291 1.6 12.9 0.00 0.00 0.00 50 1018.3
20260901153052 22 9 0.0 12.9 0.00 0.00 0.00 52 1018.3
20260901151550 22 304 4.8 14.5 0.00 0.00 0.00 49 1018.3
20260901144606 22 0 1.6 17.7 0.00 0.00 0.00 49 1018.3
20260901143055 22 291 1.6 12.9 0.00 0.00 0.00 48 1018.4
20260901141552 22 315 3.2 12.9 0.00 0.00 0.00 52 1018.4
20260901134602 22 0 6.4 19.3 0.00 0.00 0.00 50 1018.5
20260901133103 23 360 4.8 17.7 0.00 0.00 0.00 48 1018.6
20260901131554 22 187 1.6 17.7 0.00 0.00 0.00 49 1018.8
20260901130046 22 280 17.7 0.0 0.00 0.00 0.00 52 1019.0
20260901124554 22 360 12.9 0.0 0.00 0.00 0.00 50 1019.1
20260901123054 21 0 0.0 16.1 0.00 0.00 0.00 56 1019.1
20260901121554 21 277 3.2 16.1 0.00 0.00 0.00 55 1019.2
20260901120057 22 0 0.0 16.1 0.00 0.00 0.00 52 1019.1
20260901114555 22 0 0.0 17.7 0.00 0.00 0.00 53 1019.2
20260901113054 21 360 8.0 19.3 0.00 0.00 0.00 54 1019.3
20260901111557 21 279 4.8 16.1 0.00 0.00 0.00 55 1019.4
20260901110059 21 274 12.9 0.0 0.00 0.00 0.00 54 1019.4
20260901104557 22 235 1.6 14.5 0.00 0.00 0.00 51 1019.2
20260901103049 21 360 0.0 14.5 0.00 0.00 0.00 53 1019.3
20260901101550 20 0 1.6 1.6 0.00 0.00 0.00 59 1019.5
20260901100059 21 271 6.4 12.9 0.00 0.00 0.00 55 1019.6
20260901094551 21 288 8.0 0.0 0.00 0.00 0.00 54 1019.6
20260901093047 20 281 3.2 17.7 0.00 0.00 0.00 56 1019.6
20260901091603 20 0 0.0 0.0 0.00 0.00 0.00 57 1019.6
20260901090059 19 272 3.2 14.5 0.00 0.00 0.00 57 1019.6
20260901084550 19 272 0.0 14.5 0.00 0.00 0.00 62 1019.6
20260901083057 19 0 0.0 6.4 0.00 0.00 0.00 59 1019.6
20260901081556 18 0 0.0 4.8 0.00 0.00 0.00 62 1019.5
20260901080104 18 0 0.0 8.0 0.00 0.00 0.00 64 1019.5
20260901074553 18 0 0.0 3.2 0.00 0.00 0.00 65 1019.5
20260901073052 17 0 0.0 0.0 0.00 0.00 0.00 68 1019.4
20260901071605 16 0 0.0 0.0 0.00 0.00 0.00 69 1019.3
20260901064608 15 0 0.0 0.0 0.00 0.00 0.00 75 1019.3
20260901063100 13 0 0.0 0.0 0.00 0.00 0.00 77 1019.3
20260901061601 13 0 0.0 0.0 0.00 0.00 0.00 77 1019.3
20260901060051 12 0 0.0 0.0 0.00 0.00 0.00 81 1019.3
20260901054556 11 0 0.0 0.0 0.00 0.00 0.00 82 1019.3
20260901053114 10 0 0.0 0.0 0.00 0.00 0.00 81 1019.2
20260901051555 10 0 0.0 0.0 0.00 0.00 0.00 81 1019.2
20260901050048 10 0 0.0 0.0 0.00 0.00 0.00 80 1019.2
20260901044556 10 0 0.0 0.0 0.00 0.00 0.00 78 1019.2
20260901043055 10 0 0.0 0.0 0.00 0.00 0.00 78 1019.1
20260901041553 10 0 0.0 0.0 0.00 0.00 0.00 77 1019.1
20260901040104 10 0 0.0 0.0 0.00 0.00 0.00 76 1019.2
20260901034558 10 0 0.0 0.0 0.00 0.00 0.00 76 1019.1
20260901033055 11 0 0.0 0.0 0.00 0.00 0.00 75 1019.1
20260901031554 11 0 0.0 0.0 0.00 0.00 0.00 75 1019.0
20260901030048 11 0 0.0 0.0 0.00 0.00 0.00 75 1019.2
20260901024602 11 0 0.0 0.0 0.00 0.30 0.00 74 1019.2
20260901023057 11 0 0.0 0.0 0.00 0.30 0.00 72 1019.2
20260901021557 11 0 0.0 0.0 0.00 0.30 0.00 72 1019.2
20260901020053 11 0 0.0 0.0 0.00 0.30 0.00 71 1019.1
20260901014552 12 0 0.0 0.0 0.00 0.30 0.00 71 1019.1
20260901013104 12 0 0.0 0.0 0.00 0.30 0.00 70 1019.0
20260901011554 12 0 0.0 0.0 0.00 0.30 0.00 69 1018.8
20260901010056 12 0 0.0 0.0 0.00 0.30 0.00 68 1018.8
20260901004603 13 0 0.0 0.0 0.00 0.30 0.00 68 1018.7
20260901003106 13 0 0.0 0.0 0.00 0.30 0.00 68 1018.8
20260901001555 13 0 0.0 0.0 0.00 0.30 0.00 66 1018.7
20260901000053 13 0 0.0 0.0 0.00 0.30 0.00 66 1018.6
20260831234547 14 0 0.0 0.0 0.00 0.30 0.00 66 1018.5
20260831233058 14 0 0.0 0.0 0.00 0.30 0.00 65 1018.7
20260831231612 15 0 0.0 0.0 0.00 0.30 0.00 65 1018.8
20260831230051 15 0 0.0 0.0 0.00 0.30 0.00 65 1018.9
20260831224555 15 0 0.0 0.0 0.00 0.30 0.00 64 1018.9
20260831223101 15 0 0.0 0.0 0.00 0.30 0.00 64 1018.9
20260831221547 15 0 0.0 0.0 0.00 0.30 0.00 62 1018.9
20260831220055 16 0 0.0 0.0 0.00 0.30 0.00 60 1019.0
20260831214555 16 0 0.0 0.0 0.00 0.30 0.30 59 1018.9
20260831213058 16 0 0.0 0.0 0.00 0.30 0.30 57 1018.8
20260831211557 16 0 0.0 16.1 0.00 0.30 0.30 57 1018.8
20260831210056 17 360 1.6 20.9 0.00 0.30 0.30 56 1018.7
20260831204554 17 279 6.4 17.7 0.00 0.30 0.30 56 1018.7
20260831203056 17 268 11.3 17.7 0.00 0.30 0.30 55 1018.5
20260831201604 18 249 1.6 9.7 0.00 0.30 0.30 54 1018.2